This demonstration page uses our WeatherBlox Daily Observations layout. Learn more.

Left ArrowRight Arrow

34.74481, -87.66753

Hourly Observations for December 3, 2017

Temp ( °F °C ) Dew Point ( °F °C ) Humidity (%) Winds ( mph kmh ) Pressure ( in mb ) Visibility ( mi km ) Precip ( " mm )
12:53 am 00:53 Clear 43 6.1 38 3.3 82 82 Calm 30.20 1023 10 16 0.00 0.00
1:53 am 01:53 Clear 40 4.4 36 2.2 86 86 Calm 30.20 1023 10 16 0.00 0.00
2:53 am 02:53 Clear 38 3.3 35 1.7 89 89 Calm 30.20 1023 10 16 0.00 0.00
3:53 am 03:53 Clear 41 5 37 2.8 86 86 Calm 30.20 1023 10 16 0.00 0.00
4:53 am 04:53 Clear 38 3.3 35 1.7 89 89 Calm 30.21 1023 10 16 0.00 0.00
5:53 am 05:53 Clear 35 1.7 33 0.6 93 93 Calm 30.23 1024 10 16 0.00 0.00
6:53 am 06:53 Sunny 37 2.8 34 1.1 89 89 Calm 30.25 1024 10 16 0.00 0.00
7:53 am 07:53 Sunny 44 6.7 41 5 89 89 Calm 30.25 1025 10 16 0.00 0.00
8:53 am 08:53 Sunny 50 10 44 6.7 80 80 Calm 30.26 1025 10 16 0.00 0.00
9:53 am 09:53 Sunny 56 13.3 42 5.6 60 60 Calm 30.26 1025 10 16 0.00 0.00
10:53 am 10:53 Sunny 60 15.6 39 3.9 46 46 Calm 30.25 1024 10 16 0.00 0.00
11:53 am 11:53 Sunny 63 17.2 35 1.7 35 35 VRB 6 9 30.22 1023 10 16 0.00 0.00
12:53 pm 12:53 Sunny 67 19.4 33 0.6 28 28 Calm 30.18 1022 10 16 0.00 0.00
1:53 pm 13:53 Sunny 67 19.4 33 0.6 28 28 Calm 30.18 1022 10 16 0.00 0.00
2:53 pm 14:53 Sunny 66 18.9 36 2.2 33 33 ESE 3 6 30.17 1022 10 16 0.00 0.00
3:53 pm 15:53 Sunny 64 17.8 35 1.7 34 34 Calm 30.17 1022 10 16 0.00 0.00
4:53 pm 16:53 Clear 60 15.6 37 2.8 42 42 Calm 30.17 1022 10 16 0.00 0.00
5:53 pm 17:53 Clear 53 11.7 38 3.3 57 57 Calm 30.17 1022 10 16 0.00 0.00
6:53 pm 18:53 Clear 52 11.1 37 2.8 57 57 Calm 30.17 1022 10 16 0.00 0.00
7:53 pm 19:53 Clear 48 8.9 39 3.9 71 71 Calm 30.17 1022 10 16 0.00 0.00
8:53 pm 20:53 Clear 48 8.9 39 3.9 71 71 Calm 30.16 1021 10 16 0.00 0.00
9:53 pm 21:53 Clear 48 8.9 39 3.9 71 71 Calm 30.15 1021 10 16 0.00 0.00
10:53 pm 22:53 Clear 48 8.9 40 4.4 74 74 E 5 7 30.15 1021 10 16 0.00 0.00
11:53 pm 23:53 Clear 47 8.3 40 4.4 77 77 Calm 30.15 1021 10 16 0.00 0.00

Powered by AerisWeather